CS7ATL-11 Weather Reports


time (UTC)temp
C
wind
direction
speed
KPH
gust
KPH
rain 1hr
cm
rain 24hr
cm
rain mn
cm
humidity
%
barometer
mb
20260508143000 17 128 11.3 22.5 0.00 0.05 0.05 100 996.6
20260508142500 17 83 6.4 19.3 0.00 0.05 0.05 100 996.6
20260508141002 17 286 9.7 27.4 0.00 0.05 0.05 100 996.7
20260508140459 17 106 16.1 20.9 0.00 0.05 0.05 100 996.8
20260508140000 17 155 3.2 19.3 0.00 0.05 0.05 100 997.0
20260508135500 18 189 1.6 16.1 0.00 0.05 0.05 100 997.1
20260508135002 18 175 0.0 20.9 0.00 0.05 0.05 100 997.0
20260508134459 17 184 6.4 24.1 0.00 0.05 0.05 100 997.1
20260508134000 17 124 4.8 24.1 0.00 0.05 0.05 100 997.2
20260508133500 17 188 4.8 19.3 0.00 0.05 0.05 100 997.3
20260508133002 17 130 16.1 17.7 0.00 0.05 0.05 100 997.3
20260508132500 18 136 14.5 17.7 0.00 0.05 0.05 100 997.3
20260508132000 18 144 6.4 22.5 0.00 0.05 0.05 100 997.4
20260508131500 18 167 6.4 22.5 0.00 0.05 0.05 100 997.2
20260508131000 18 90 11.3 22.5 0.00 0.05 0.05 100 997.3
20260508130002 18 132 11.3 24.1 0.00 0.05 0.05 100 997.2
20260508125500 18 128 11.3 24.1 0.00 0.05 0.05 100 997.3
20260508123500 18 130 3.2 19.3 0.00 0.05 0.05 100 997.6
20260508122500 18 144 12.9 19.3 0.00 0.05 0.05 100 997.7
20260508122002 17 180 19.3 27.4 0.00 0.05 0.05 100 997.7
20260508121500 17 134 11.3 27.4 0.00 0.05 0.05 100 997.8
20260508120959 17 162 8.0 16.1 0.00 0.05 0.05 100 997.9
20260508120500 17 132 6.4 25.7 0.00 0.05 0.05 100 998.1
20260508120002 17 105 11.3 25.7 0.00 0.05 0.05 100 998.1
20260508115500 18 187 9.7 24.1 0.00 0.05 0.05 100 998.1
20260508115000 17 179 8.0 27.4 0.00 0.05 0.05 100 998.2
20260508114503 17 134 11.3 27.4 0.00 0.05 0.05 100 998.2
20260508113459 17 112 11.3 22.5 0.00 0.05 0.05 100 998.5
20260508112503 18 143 12.9 17.7 0.00 0.05 0.05 100 998.3
20260508112002 18 142 4.8 19.3 0.00 0.05 0.05 100 998.2
20260508111500 17 123 6.4 19.3 0.00 0.05 0.05 100 998.4
20260508111000 17 126 12.9 19.3 0.00 0.05 0.05 100 998.2
20260508110502 17 171 19.3 19.3 0.00 0.05 0.05 100 998.2
20260508110000 17 167 17.7 17.7 0.00 0.05 0.05 100 998.3
20260508105003 17 205 3.2 24.1 0.00 0.05 0.05 100 998.4
20260508104000 17 165 3.2 22.5 0.00 0.05 0.05 100 998.5
20260508103000 17 93 3.2 20.9 0.00 0.05 0.05 100 998.5
20260508102500 17 181 12.9 22.5 0.00 0.05 0.05 100 998.6
20260508102000 17 72 4.8 19.3 0.00 0.05 0.05 100 998.4
20260508100959 17 169 1.6 14.5 0.00 0.05 0.05 100 998.4
20260508100500 17 183 6.4 16.1 0.00 0.05 0.05 100 998.5
20260508100002 17 133 11.3 20.9 0.00 0.05 0.05 100 998.5
20260508095459 17 139 17.7 20.9 0.00 0.05 0.05 100 998.6
20260508095002 17 153 0.0 17.7 0.00 0.05 0.05 100 998.4
20260508094500 17 168 9.7 19.3 0.00 0.05 0.05 100 998.5
20260508094003 17 163 12.9 16.1 0.00 0.05 0.05 100 998.4
20260508093500 17 190 8.0 16.1 0.00 0.05 0.05 100 998.4
20260508092959 16 137 6.4 16.1 0.00 0.05 0.05 100 998.3
20260508092500 16 91 6.4 17.7 0.00 0.05 0.05 100 998.5
20260508092002 17 164 8.0 17.7 0.00 0.05 0.05 100 998.4
20260508091500 16 152 0.0 12.9 0.00 0.05 0.05 100 998.5
20260508091003 16 74 0.0 12.9 0.00 0.05 0.05 100 998.4
20260508090500 16 155 4.8 9.7 0.00 0.05 0.05 100 998.5
20260508090002 16 115 3.2 9.7 0.00 0.05 0.05 100 998.6
20260508085500 16 136 4.8 14.5 0.00 0.05 0.05 100 998.6
20260508085000 16 134 4.8 14.5 0.00 0.05 0.05 100 998.6
20260508084500 16 177 1.6 12.9 0.00 0.05 0.05 100 998.6
20260508084000 16 148 6.4 12.9 0.00 0.05 0.05 100 998.5
20260508083500 16 165 1.6 12.9 0.00 0.05 0.05 100 998.6
20260508082959 16 177 6.4 11.3 0.00 0.05 0.05 100 998.6
20260508082459 16 148 1.6 9.7 0.00 0.05 0.05 100 998.6
20260508082002 16 99 4.8 11.3 0.00 0.05 0.05 100 998.8
20260508080959 16 128 3.2 12.9 0.00 0.05 0.05 100 998.7
20260508080459 16 205 0.0 9.7 0.00 0.05 0.05 100 998.5
20260508080002 15 129 0.0 6.4 0.00 0.05 0.05 100 998.6
20260508075500 15 143 1.6 6.4 0.00 0.05 0.05 100 998.5
20260508075000 15 199 0.0 6.4 0.00 0.05 0.05 100 998.6
20260508074459 14 142 3.2 8.0 0.00 0.05 0.05 100 998.5
20260508073959 14 188 0.0 9.7 0.00 0.05 0.05 100 998.7
20260508073500 14 153 3.2 6.4 0.00 0.05 0.05 100 998.6
20260508073000 14 174 3.2 4.8 0.00 0.05 0.05 100 998.6
20260508072500 14 150 4.8 6.4 0.00 0.05 0.05 100 998.5
20260508072000 13 142 0.0 6.4 0.00 0.05 0.05 100 998.5
20260508071503 13 125 3.2 4.8 0.00 0.05 0.05 100 998.6
20260508070959 13 134 0.0 3.2 0.00 0.05 0.05 100 998.5
20260508070459 13 134 1.6 4.8 0.00 0.05 0.05 100 998.6
20260508065503 13 157 0.0 4.8 0.00 0.05 0.05 100 998.5
20260508064959 13 138 1.6 4.8 0.00 0.05 0.05 100 998.5
20260508064459 13 142 1.6 4.8 0.00 0.05 0.05 100 998.4
20260508063959 12 152 0.0 4.8 0.00 0.05 0.05 100 998.4
20260508063001 12 142 0.0 4.8 0.00 0.05 0.05 100 998.5
20260508062500 12 167 0.0 6.4 0.00 0.05 0.05 100 998.4
20260508061459 12 140 3.2 6.4 0.00 0.05 0.05 100 998.4
20260508060959 12 270 0.0 1.6 0.00 0.05 0.05 100 998.3
20260508060500 12 270 0.0 0.0 0.00 0.05 0.05 100 998.4
20260508055000 12 270 0.0 0.0 0.00 0.05 0.05 100 998.1
20260508053500 12 270 0.0 0.0 0.00 0.05 0.05 100 998.1
20260508052503 12 270 0.0 0.0 0.00 0.05 0.05 100 997.9
20260508051001 12 270 0.0 0.0 0.03 0.05 0.05 100 997.8
20260508050459 12 270 0.0 0.0 0.03 0.05 0.05 100 997.7
20260508045959 12 270 0.0 0.0 0.03 0.05 0.05 100 997.5
20260508045459 12 270 0.0 0.0 0.03 0.05 0.05 100 997.6
20260508044959 12 270 0.0 0.0 0.03 0.05 0.05 100 997.6
20260508044458 12 270 0.0 0.0 0.03 0.05 0.05 100 997.5
20260508043959 12 270 0.0 0.0 0.03 0.05 0.05 100 997.5
20260508043459 12 270 0.0 1.6 0.03 0.05 0.05 100 997.5
20260508042459 12 264 3.2 4.8 0.05 0.05 0.05 100 997.5
20260508041959 12 241 0.0 0.0 0.05 0.05 0.05 100 997.4
20260508041459 12 240 0.0 0.0 0.03 0.03 0.03 100 997.4
20260508040958 12 233 0.0 0.0 0.03 0.03 0.03 100 997.6
20260508040459 12 233 0.0 0.0 0.03 0.03 0.03 100 997.7
20260508040002 12 233 0.0 0.0 0.03 0.03 0.03 100 997.8
20260508035500 12 233 0.0 0.0 0.03 0.03 0.03 100 997.9
20260508035001 13 233 0.0 1.6 0.03 0.03 0.03 100 997.8
20260508034500 13 233 0.0 1.6 0.03 0.03 0.03 100 998.1
20260508033959 13 241 0.0 4.8 0.03 0.03 0.03 100 998.2
20260508033500 13 249 0.0 14.5 0.03 0.03 0.03 100 997.9
20260508033000 14 185 3.2 14.5 0.00 0.00 0.00 100 998.1
20260508032500 14 130 6.4 9.7 0.00 0.00 0.00 100 997.9
20260508032000 14 156 8.0 9.7 0.00 0.00 0.00 100 997.8
20260508031500 13 132 0.0 6.4 0.00 0.00 0.00 100 997.9
20260508030959 13 322 0.0 0.0 0.00 0.00 0.00 100 997.8
20260508030500 13 322 0.0 1.6 0.00 0.00 0.00 100 997.8
20260508030001 13 322 0.0 3.2 0.00 0.00 0.00 100 997.8
20260508025459 13 322 0.0 3.2 0.00 0.00 0.00 100 997.9
20260508025001 13 322 0.0 0.0 0.00 0.00 0.00 100 997.7
20260508024503 13 322 0.0 0.0 0.00 0.00 0.00 100 997.9
20260508024000 13 322 0.0 0.0 0.00 0.00 0.00 100 997.9
20260508023459 13 322 0.0 0.0 0.00 0.00 0.00 100 997.8
20260508022959 13 322 0.0 0.0 0.00 0.00 0.00 100 997.9
20260508022459 13 322 0.0 0.0 0.00 0.00 0.00 100 997.9
20260508021959 13 322 0.0 0.0 0.00 0.00 0.00 100 997.9
20260508021459 13 322 0.0 0.0 0.00 0.00 0.00 100 998.0
20260508021000 13 322 0.0 0.0 0.00 0.00 0.00 100 998.1
20260508020459 13 322 0.0 0.0 0.00 0.00 0.00 100 998.1
20260508015459 13 322 0.0 0.0 0.00 0.00 0.00 100 998.5
20260508014959 13 322 0.0 0.0 0.00 0.00 0.00 100 998.4
20260508014002 13 322 0.0 0.0 0.00 0.00 0.00 100 998.4
20260508013459 13 322 0.0 0.0 0.00 0.00 0.00 100 998.5
20260508012959 13 322 0.0 0.0 0.00 0.00 0.00 100 998.7
20260508012459 13 322 0.0 0.0 0.00 0.00 0.00 100 998.7
20260508011959 13 322 0.0 0.0 0.00 0.00 0.00 100 998.7
20260508011459 13 322 0.0 0.0 0.00 0.00 0.00 100 998.7
20260508011002 13 322 0.0 0.0 0.00 0.00 0.00 100 998.6
20260508010459 13 322 0.0 0.0 0.00 0.00 0.00 100 998.7
20260508005459 13 322 0.0 0.0 0.00 0.00 0.00 100 998.8
20260508005000 13 322 0.0 0.0 0.00 0.00 0.00 100 998.8
20260508004500 13 322 0.0 0.0 0.00 0.00 0.00 100 999.0
20260508004000 13 322 0.0 0.0 0.00 0.00 0.00 100 999.1
20260508003459 13 322 0.0 0.0 0.00 0.00 0.00 100 999.2
20260508002959 13 322 0.0 0.0 0.00 0.00 0.00 100 999.1
20260508002500 13 322 0.0 0.0 0.00 0.00 0.00 100 999.2
20260508001459 13 322 0.0 0.0 0.00 0.00 0.00 100 999.3
20260508000959 13 322 0.0 0.0 0.00 0.00 0.00 100 999.2
20260508000459 13 322 0.0 0.0 0.00 0.00 0.00 100 999.1
20260508000002 13 322 0.0 0.0 0.00 0.00 0.00 100 999.2
20260507235502 13 322 0.0 0.0 0.00 0.00 0.00 100 999.3
20260507235002 13 322 0.0 0.0 0.00 0.00 0.00 100 999.2
20260507234502 13 322 0.0 0.0 0.00 0.00 0.00 100 999.0
20260507234002 13 322 0.0 0.0 0.00 0.00 0.00 100 999.1
20260507233003 13 322 0.0 0.0 0.00 0.00 0.00 100 999.1
20260507232002 13 322 0.0 0.0 0.00 0.00 0.00 100 999.2
20260507231502 13 322 0.0 1.6 0.00 0.00 0.00 100 999.1
20260507231002 13 322 0.0 1.6 0.00 0.00 0.00 100 999.2
20260507230502 13 322 0.0 3.2 0.00 0.00 0.00 100 999.3
20260507230006 13 322 1.6 3.2 0.00 0.00 0.00 100 999.1
20260507225502 13 321 0.0 0.0 0.00 0.00 0.00 100 999.5
20260507225002 13 321 0.0 0.0 0.00 0.00 0.00 100 999.7
20260507224502 13 321 0.0 0.0 0.00 0.00 0.00 100 999.5
20260507224002 14 321 0.0 0.0 0.00 0.00 0.00 100 999.6
20260507223502 14 321 0.0 0.0 0.00 0.00 0.00 100 999.7
20260507222503 14 321 0.0 1.6 0.00 0.00 0.00 100 999.5
20260507222002 14 321 0.0 0.0 0.00 0.00 0.00 100 999.5
20260507221002 14 321 0.0 0.0 0.00 0.00 0.00 100 999.6
20260507220502 14 321 0.0 3.2 0.00 0.00 0.00 100 999.6
20260507220002 14 321 0.0 3.2 0.00 0.00 0.00 100 999.4
20260507215002 14 322 0.0 1.6 0.00 0.00 0.00 100 999.8
20260507214503 14 322 0.0 1.6 0.00 0.00 0.00 100 999.8
20260507213502 14 322 0.0 3.2 0.00 0.00 0.00 100 999.8
20260507213002 14 322 0.0 6.4 0.00 0.00 0.00 100 999.8
20260507212502 14 326 1.6 4.8 0.00 0.00 0.00 100 999.7
20260507212003 14 327 0.0 4.8 0.00 0.00 0.00 100 999.8
20260507211502 14 330 1.6 4.8 0.00 0.00 0.00 100 1000.0
20260507210502 14 324 0.0 3.2 0.00 0.00 0.00 100 1000.0
20260507210003 14 324 0.0 3.2 0.00 0.00 0.00 100 1000.0
20260507205503 14 324 0.0 6.4 0.00 0.00 0.00 100 1000.0
20260507205003 14 327 0.0 8.0 0.00 0.00 0.00 100 999.8
20260507204502 14 302 0.0 8.0 0.00 0.00 0.00 100 999.8
20260507204002 14 308 0.0 4.8 0.00 0.00 0.00 100 1000.0
20260507202003 15 304 0.0 3.2 0.00 0.00 0.00 100 999.8
20260507201503 15 307 0.0 3.2 0.00 0.00 0.00 100 999.7
20260507201002 15 324 0.0 6.4 0.00 0.00 0.00 100 999.7
20260507200502 15 311 0.0 6.4 0.00 0.00 0.00 100 999.8
20260507200002 15 288 0.0 1.6 0.00 0.00 0.00 100 999.7
20260507195503 15 284 0.0 3.2 0.00 0.00 0.00 100 999.6
20260507195002 15 284 0.0 6.4 0.00 0.00 0.00 100 999.7
20260507194503 15 240 3.2 3.2 0.00 0.00 0.00 100 999.7
20260507194002 15 235 0.0 6.4 0.00 0.00 0.00 100 999.6
20260507193503 15 228 0.0 6.4 0.00 0.00 0.00 100 999.6
20260507193002 15 286 3.2 8.0 0.00 0.00 0.00 100 999.6
20260507192503 15 308 0.0 8.0 0.00 0.00 0.00 100 999.7
20260507192003 15 310 3.2 4.8 0.00 0.00 0.00 100 999.5
20260507191502 15 315 0.0 4.8 0.00 0.00 0.00 100 999.5
20260507191002 15 265 1.6 9.7 0.00 0.00 0.00 100 999.5
20260507190503 15 295 1.6 12.9 0.00 0.00 0.00 100 999.4
20260507185502 15 270 0.0 14.5 0.00 0.00 0.00 100 999.4
20260507185003 15 346 0.0 8.0 0.00 0.00 0.00 100 999.4
20260507184502 15 209 0.0 8.0 0.00 0.00 0.00 100 999.4
20260507184003 16 248 0.0 8.0 0.00 0.00 0.00 100 999.5
20260507183503 16 334 0.0 12.9 0.00 0.00 0.00 100 999.4
20260507183003 16 279 1.6 12.9 0.00 0.00 0.00 100 999.4
20260507182502 16 281 0.0 9.7 0.00 0.00 0.00 100 999.3
20260507182004 16 166 0.0 9.7 0.00 0.00 0.00 100 999.3
20260507181502 16 306 3.2 9.7 0.00 0.00 0.00 100 999.3
20260507181003 16 290 6.4 14.5 0.00 0.00 0.00 100 999.3
20260507180003 16 207 0.0 12.9 0.00 0.00 0.00 100 999.2
20260507175503 16 270 0.0 11.3 0.00 0.00 0.00 100 999.2
20260507175003 16 290 1.6 14.5 0.00 0.00 0.00 100 999.2
20260507174503 16 266 9.7 14.5 0.00 0.00 0.00 100 999.1
20260507173502 16 268 3.2 16.1 0.00 0.00 0.00 100 998.9
20260507173003 17 257 8.0 16.1 0.00 0.00 0.00 100 999.0
20260507172502 17 170 6.4 14.5 0.00 0.00 0.00 100 999.0
20260507172002 17 248 0.0 11.3 0.00 0.00 0.00 100 999.1
20260507171502 17 295 3.2 14.5 0.00 0.00 0.00 100 999.2
20260507171003 17 327 1.6 17.7 0.00 0.00 0.00 100 998.9
20260507170503 17 217 0.0 17.7 0.00 0.00 0.00 100 998.9
20260507165502 18 355 1.6 14.5 0.00 0.00 0.00 100 998.8
20260507165003 18 146 0.0 17.7 0.00 0.00 0.00 100 998.8
20260507164503 18 277 9.7 14.5 0.00 0.00 0.00 100 998.8
20260507164002 18 314 3.2 14.5 0.00 0.00 0.00 100 998.8
20260507163502 19 280 3.2 17.7 0.00 0.00 0.00 100 998.8
20260507162503 19 254 0.0 19.3 0.00 0.00 0.00 100 998.8
20260507162002 19 263 0.0 14.5 0.00 0.00 0.00 100 998.8
20260507161502 19 322 1.6 14.5 0.00 0.00 0.00 100 998.8
20260507161003 19 311 3.2 16.1 0.00 0.00 0.00 100 998.9
20260507160004 19 305 14.5 14.5 0.00 0.00 0.00 100 998.9
20260507155502 18 249 6.4 12.9 0.00 0.00 0.00 100 999.0
20260507155000 18 295 3.2 14.5 0.00 0.00 0.00 100 999.0
20260507154502 18 321 4.8 17.7 0.00 0.00 0.00 100 998.9
20260507154000 19 281 6.4 17.7 0.00 0.00 0.00 100 999.0
20260507153500 20 184 3.2 17.7 0.00 0.00 0.00 100 999.0
20260507153002 19 227 0.0 22.5 0.00 0.00 0.00 100 999.0
20260507152459 19 285 4.8 22.5 0.00 0.00 0.00 100 999.1
20260507151500 20 203 4.8 19.3 0.00 0.00 0.00 100 999.0
20260507151000 20 292 3.2 19.3 0.00 0.00 0.00 100 999.0
20260507150500 20 221 1.6 17.7 0.00 0.00 0.00 100 999.0
20260507145504 20 277 1.6 17.7 0.00 0.00 0.00 100 999.1
20260507145002 20 311 8.0 17.7 0.00 0.00 0.00 100 999.0
20260507144002 20 199 4.8 12.9 0.00 0.00 0.00 100 999.1
20260507143503 20 242 3.2 14.5 0.00 0.00 0.00 100 999.1